| time (UTC) | temp F | wind direction | speed knots | gust knots | rain 1hr in | rain 24hr in | rain mn in | humidity % | barometer mb |
| 20260904160057 | 84 | 103 | 1.7 | 4.3 | 0.00 | 0.00 | 0.00 | 70 | 1012.9 |
| 20260904154556 | 83 | 49 | 1.7 | 3.5 | 0.00 | 0.01 | 0.00 | 72 | 1012.8 |
| 20260904153052 | 82 | 25 | 0.0 | 2.6 | 0.00 | 0.01 | 0.00 | 70 | 1012.8 |
| 20260904151550 | 82 | 81 | 0.0 | 5.2 | 0.00 | 0.01 | 0.00 | 71 | 1012.9 |
| 20260904150049 | 81 | 56 | 0.9 | 4.3 | 0.00 | 0.01 | 0.00 | 72 | 1013.0 |
| 20260904144546 | 80 | 330 | 1.7 | 4.3 | 0.00 | 0.04 | 0.00 | 74 | 1013.1 |
| 20260904143049 | 80 | 4 | 1.7 | 4.3 | 0.00 | 0.04 | 0.00 | 74 | 1013.1 |
| 20260904141544 | 80 | 96 | 0.9 | 5.2 | 0.00 | 0.04 | 0.00 | 74 | 1013.0 |
| 20260904140046 | 79 | 30 | 0.9 | 4.3 | 0.00 | 0.04 | 0.00 | 76 | 1013.0 |
| 20260904134545 | 78 | 32 | 1.7 | 5.2 | 0.00 | 0.04 | 0.00 | 76 | 1013.1 |
| 20260904133037 | 77 | 79 | 0.9 | 7.0 | 0.00 | 0.04 | 0.00 | 76 | 1012.9 |
| 20260904131534 | 76 | 61 | 0.9 | 3.5 | 0.00 | 0.04 | 0.00 | 76 | 1012.9 |
| 20260904130029 | 75 | 81 | 0.0 | 2.6 | 0.00 | 0.04 | 0.00 | 69 | 1013.1 |
| 20260904124526 | 73 | 217 | 0.0 | 1.7 | 0.00 | 0.04 | 0.00 | 56 | 1013.5 |
| 20260904123032 | 71 | 20 | 0.0 | 0.9 | 0.00 | 0.04 | 0.00 | 32 | 1013.4 |
| 20260904121525 | 70 | 236 | 0.0 | 0.9 | 0.00 | 0.04 | 0.00 | 27 | 1013.5 |
| 20260904120031 | 69 | 252 | 0.0 | 0.0 | 0.00 | 0.04 | 0.00 | 28 | 1013.5 |
| 20260904114522 | 68 | 252 | 0.0 | 0.0 | 0.00 | 0.05 | 0.00 | 29 | 1013.5 |
| 20260904113021 | 68 | 252 | 0.0 | 0.0 | 0.00 | 0.05 | 0.00 | 29 | 1013.5 |
| 20260904111518 | 67 | 252 | 0.0 | 0.9 | 0.00 | 0.05 | 0.00 | 30 | 1013.1 |
| 20260904110017 | 67 | 252 | 0.0 | 0.0 | 0.00 | 0.05 | 0.00 | 31 | 1012.9 |
| 20260904104515 | 67 | 252 | 0.0 | 0.0 | 0.00 | 0.10 | 0.00 | 31 | 1012.6 |
| 20260904103021 | 68 | 252 | 0.0 | 0.9 | 0.00 | 0.10 | 0.00 | 31 | 1012.4 |
| 20260904101510 | 68 | 252 | 0.0 | 0.0 | 0.00 | 0.10 | 0.00 | 31 | 1012.4 |
| 20260904100020 | 68 | 252 | 0.0 | 0.0 | 0.00 | 0.10 | 0.00 | 30 | 1012.4 |
| 20260904094507 | 69 | 252 | 0.0 | 0.9 | 0.00 | 0.41 | 0.00 | 30 | 1012.4 |
| 20260904093007 | 69 | 252 | 0.0 | 0.0 | 0.00 | 0.41 | 0.00 | 31 | 1012.3 |
| 20260904091506 | 69 | 252 | 0.0 | 0.0 | 0.00 | 0.41 | 0.00 | 31 | 1012.0 |
| 20260904090005 | 69 | 252 | 0.0 | 0.0 | 0.00 | 0.41 | 0.00 | 32 | 1012.3 |
| 20260904084506 | 69 | 252 | 0.0 | 0.0 | 0.00 | 0.41 | 0.00 | 31 | 1012.5 |
| 20260904083011 | 69 | 252 | 0.0 | 0.0 | 0.00 | 0.41 | 0.00 | 31 | 1012.4 |
| 20260904081505 | 69 | 252 | 0.0 | 0.0 | 0.00 | 0.41 | 0.00 | 32 | 1012.5 |
| 20260904080003 | 69 | 252 | 0.0 | 0.0 | 0.00 | 0.41 | 0.00 | 32 | 1012.1 |
| 20260904074502 | 69 | 252 | 0.0 | 0.0 | 0.00 | 0.41 | 0.00 | 32 | 1012.2 |
| 20260904073001 | 69 | 252 | 0.0 | 0.0 | 0.00 | 0.41 | 0.00 | 32 | 1012.3 |
| 20260904071608 | 68 | 252 | 0.0 | 0.0 | 0.00 | 0.41 | 0.00 | 33 | 1012.2 |
| 20260904070059 | 68 | 252 | 0.0 | 0.0 | 0.00 | 0.41 | 0.00 | 34 | 1011.8 |
| 20260904064558 | 69 | 252 | 0.0 | 0.0 | 0.00 | 0.41 | 0.00 | 35 | 1011.3 |
| 20260904063057 | 69 | 253 | 0.0 | 0.0 | 0.00 | 0.41 | 0.00 | 37 | 1011.1 |
| 20260904061555 | 69 | 253 | 0.0 | 0.0 | 0.00 | 0.41 | 0.00 | 40 | 1011.1 |
| 20260904060053 | 69 | 253 | 0.0 | 0.0 | 0.00 | 0.41 | 0.00 | 41 | 1010.9 |
| 20260904054552 | 70 | 253 | 0.0 | 0.0 | 0.00 | 0.41 | 0.00 | 45 | 1010.7 |
| 20260904053048 | 70 | 253 | 0.0 | 0.9 | 0.00 | 0.41 | 0.00 | 47 | 1011.0 |
| 20260904051545 | 71 | 249 | 0.0 | 0.9 | 0.00 | 0.41 | 0.00 | 50 | 1011.1 |
| 20260904050047 | 72 | 251 | 0.0 | 0.9 | 0.00 | 0.41 | 0.00 | 46 | 1011.4 |
| 20260904044542 | 72 | 224 | 0.0 | 0.9 | 0.00 | 0.41 | 0.00 | 45 | 1011.7 |
| 20260904043039 | 73 | 224 | 0.0 | 1.7 | 0.00 | 0.41 | 0.00 | 48 | 1011.5 |
| 20260904041536 | 74 | 197 | 0.0 | 0.9 | 0.00 | 0.41 | 0.00 | 43 | 1011.9 |
| 20260904040037 | 75 | 212 | 0.0 | 5.2 | 0.00 | 0.41 | 0.00 | 35 | 1012.4 |
| 20260904034534 | 75 | 330 | 0.0 | 0.9 | 0.00 | 0.41 | 0.41 | 30 | 1012.6 |
| 20260904033030 | 76 | 330 | 0.0 | 1.7 | 0.00 | 0.41 | 0.41 | 30 | 1013.0 |
| 20260904031529 | 76 | 81 | 0.0 | 0.0 | 0.00 | 0.41 | 0.41 | 34 | 1013.0 |
| 20260904030029 | 76 | 81 | 0.0 | 0.0 | 0.00 | 0.41 | 0.41 | 36 | 1013.1 |
| 20260904024529 | 76 | 80 | 0.0 | 0.0 | 0.00 | 0.41 | 0.41 | 37 | 1013.4 |
| 20260904023027 | 76 | 80 | 0.0 | 0.0 | 0.00 | 0.41 | 0.41 | 40 | 1012.7 |
| 20260904021538 | 76 | 81 | 0.0 | 0.0 | 0.00 | 0.41 | 0.41 | 40 | 1012.3 |
| 20260904020027 | 76 | 80 | 0.0 | 0.0 | 0.00 | 0.41 | 0.41 | 42 | 1012.5 |
| 20260904014534 | 76 | 81 | 0.0 | 0.0 | 0.00 | 0.41 | 0.41 | 47 | 1012.4 |
| 20260904013024 | 77 | 80 | 0.0 | 0.0 | 0.00 | 0.41 | 0.41 | 50 | 1011.9 |
| 20260904011538 | 77 | 80 | 0.0 | 0.0 | 0.00 | 0.41 | 0.41 | 51 | 1011.9 |
| 20260904010024 | 77 | 81 | 0.0 | 0.0 | 0.00 | 0.41 | 0.41 | 53 | 1012.1 |
| 20260904004524 | 77 | 81 | 0.0 | 0.0 | 0.00 | 0.41 | 0.41 | 54 | 1012.3 |
| 20260904003022 | 77 | 80 | 0.0 | 0.0 | 0.00 | 0.41 | 0.41 | 58 | 1012.4 |
| 20260904001521 | 78 | 81 | 0.0 | 0.0 | 0.00 | 0.41 | 0.41 | 60 | 1012.6 |
| 20260904000021 | 78 | 81 | 0.0 | 0.0 | 0.00 | 0.41 | 0.41 | 65 | 1012.7 |
| 20260903234523 | 79 | 81 | 0.0 | 0.0 | 0.00 | 0.41 | 0.41 | 69 | 1012.5 |
| 20260903233020 | 80 | 80 | 0.0 | 0.0 | 0.00 | 0.41 | 0.41 | 72 | 1011.9 |
| 20260903231522 | 81 | 81 | 0.0 | 0.0 | 0.00 | 0.41 | 0.41 | 74 | 1012.2 |
| 20260903230019 | 82 | 81 | 0.0 | 0.0 | 0.00 | 0.41 | 0.41 | 75 | 1011.9 |
| 20260903224527 | 82 | 81 | 0.0 | 0.0 | 0.00 | 0.41 | 0.41 | 76 | 1012.0 |
| 20260903223018 | 83 | 81 | 0.0 | 0.9 | 0.00 | 0.41 | 0.41 | 76 | 1011.8 |
| 20260903221518 | 84 | 235 | 0.0 | 0.0 | 0.00 | 0.41 | 0.41 | 75 | 1011.8 |
| 20260903220033 | 84 | 235 | 0.0 | 1.7 | 0.00 | 0.41 | 0.41 | 73 | 1011.6 |
| 20260903214519 | 85 | 172 | 0.0 | 0.9 | 0.00 | 0.41 | 0.41 | 74 | 1011.7 |
| 20260903213023 | 85 | 84 | 0.0 | 1.7 | 0.00 | 0.41 | 0.41 | 73 | 1011.7 |
| 20260903211515 | 85 | 240 | 0.0 | 2.6 | 0.00 | 0.41 | 0.41 | 71 | 1011.4 |
| 20260903210022 | 86 | 269 | 0.9 | 5.2 | 0.00 | 0.41 | 0.41 | 70 | 1011.7 |
| 20260903204516 | 87 | 283 | 0.0 | 3.5 | 0.00 | 0.41 | 0.41 | 69 | 1011.7 |
| 20260903203012 | 88 | 145 | 0.0 | 1.7 | 0.00 | 0.41 | 0.41 | 67 | 1011.7 |
| 20260903201520 | 87 | 251 | 0.9 | 2.6 | 0.00 | 0.41 | 0.41 | 67 | 1011.8 |
| 20260903200007 | 87 | 194 | 0.0 | 7.0 | 0.00 | 0.41 | 0.41 | 69 | 1012.1 |
| 20260903194506 | 87 | 50 | 0.0 | 2.6 | 0.00 | 0.41 | 0.41 | 69 | 1012.2 |
| 20260903193004 | 87 | 236 | 0.9 | 3.5 | 0.00 | 0.41 | 0.41 | 70 | 1012.4 |
| 20260903191502 | 87 | 223 | 0.9 | 3.5 | 0.00 | 0.41 | 0.41 | 71 | 1012.6 |
| 20260903190101 | 86 | 249 | 0.9 | 4.3 | 0.00 | 0.41 | 0.41 | 69 | 1012.7 |
| 20260903184601 | 87 | 270 | 0.9 | 4.3 | 0.00 | 0.41 | 0.41 | 69 | 1013.1 |
| 20260903183057 | 86 | 181 | 0.0 | 2.6 | 0.00 | 0.41 | 0.41 | 70 | 1013.1 |
| 20260903181556 | 86 | 62 | 1.7 | 5.2 | 0.00 | 0.41 | 0.41 | 68 | 1013.3 |
| 20260903180054 | 86 | 302 | 1.7 | 6.1 | 0.00 | 0.41 | 0.41 | 70 | 1013.5 |
| 20260903174551 | 85 | 273 | 0.0 | 3.5 | 0.00 | 0.50 | 0.41 | 74 | 1013.6 |
| 20260903173049 | 84 | 277 | 0.9 | 5.2 | 0.00 | 0.50 | 0.41 | 74 | 1013.8 |
| 20260903171546 | 84 | 81 | 0.0 | 3.5 | 0.00 | 0.50 | 0.41 | 76 | 1014.0 |
| 20260903170045 | 82 | 1 | 0.0 | 2.6 | 0.00 | 0.50 | 0.41 | 75 | 1014.2 |
| 20260903164539 | 81 | 32 | 0.9 | 4.3 | 0.00 | 0.67 | 0.41 | 73 | 1014.4 |
| 20260903163033 | 79 | 203 | 0.9 | 5.2 | 0.00 | 0.67 | 0.41 | 65 | 1014.7 |
| 20260903161532 | 77 | 280 | 0.0 | 2.6 | 0.00 | 0.67 | 0.41 | 48 | 1015.0 |